Location: Jackson
(42.2460°N, 84.4010°W)
Time: 11:48:37
(UTC-04:00)

Injun/Solrad 3 - Pass Details

Date: 12 February 2026
Orbit: 871 x 985 km, 66.8° (Epoch: 16 March)

Event Time Altitude Azimuth Distance (km) Brightness Sun altitude
Rises 20:52:26 0° 334° (NNW) 3,559 11.4 -31.2°
Reaches altitude 10° 20:55:10 10° 344° (NNW) 2,632 10.5 -31.7°
Enters shadow 20:57:54 24° 3° (N) 1,846 9.5 -32.2°
